Regional Weather Roundup
Issued by NWS

Home | Current Version | Previous Version | Text Only | Print | Product List | Glossary Off
Versions: 1 2 3 4 5 6 7 8 9 10 11 12 13 14 15 16 17 18 19 20 21 22 23 24 25 26 27 28 29 30 31 32 33 34 35 36 37 38 39 40 41 42 43 44 45 46 47 48 49 50

000
ASUS45 KCYS 041410
RWRWY

WYOMING REGIONAL WEATHER ROUNDUP
NATIONAL WEATHER SERVICE CHEYENNE WY
800 AM MDT SAT JUL 04 2015

NOTE:  "FAIR" INDICATES FEW OR NO CLOUDS BELOW 12,000 FEET
WITH NO SIGNIFICANT WEATHER AND/OR OBSTRUCTIONS TO VISIBILITY.

WYZ001-041500-
YELLOWSTONE NATIONAL PARK

CITY           SKY/WX    TMP DP  RH WIND       PRES   REMARKS
LK YELLOWSTONE   N/A     57  48  72 CALM      30.23S
W YELLOWSTONE  NOT AVBL

$$
WYZ002>013-054>058-071-098>099-041500-
NORTHERN WYOMING

CITY           SKY/WX    TMP DP  RH WIND       PRES   REMARKS
JACKSON        FAIR      59  46  63 N5        30.13S
CODY           FAIR      72  48  43 W3        29.98S
GREYBULL       FAIR      72  53  51 W3        29.91R
WORLAND        FAIR      69  56  62 SW5       29.92S
SHERIDAN       FAIR      70  56  61 CALM      29.89S
BUFFALO        FAIR      78  53  41 NW5       29.96S
GILLETTE       FAIR      73  58  59 CALM      29.92S
HULETT         FAIR      73  59  60 SW7       29.92S
NEWCASTLE      FAIR      73  54  49 SE7       29.94S

$$
WYZ014>020-022>026-101>103-041500-
CENTRAL WYOMING

CITY           SKY/WX    TMP DP  RH WIND       PRES   REMARKS
BIG PINEY      FAIR      64  44  48 W5        30.17R
PINEDALE       FAIR      61  48  63 W3        30.18R
DUBOIS         FAIR      59  39  47 NW10      30.16S
LANDER         FAIR      66  54  65 SW3       30.02S
RIVERTON       FAIR      70  52  52 NW7       30.02R
CASPER         FAIR      68  51  54 CALM      30.00S
DOUGLAS        FAIR      66  55  67 CALM      29.98S

$$
WYZ021-027>030-104>119-041500-
SOUTHERN WYOMING

CITY           SKY/WX    TMP DP  RH WIND       PRES   REMARKS
EVANSTON       FAIR      65  44  46 SW9       30.19R
KEMMERER       FAIR      68  45  42 N3        30.20R
FORT BRIDGER   PTSUNNY   72  41  33 W5        30.19S
ROCK SPRINGS   FAIR      70  44  39 CALM      30.14R
DIXON          FAIR      64  42  44 SE6       30.19R
RAWLINS        CLOUDY    67  50  54 VRB3      30.14R
SARATOGA       FAIR      64  43  45 S9        30.18S
LARAMIE        FAIR      67  44  43 CALM      30.16R
CHEYENNE       FAIR      69  58  67 W5        30.06R
TORRINGTON     FAIR      69  60  73 SE9       29.94S
PINE BLUFFS    FAIR      68  59  73 SW5       30.01S

$$


USA.gov is the U.S. government's official web portal to all federal, state and local government web resources and services.